Flag Weather past 2 weeks in Langen, Hesse, Germany

Now
45 °F

Clear.


Feels Like: 40 °F
Forecast: 39 / 49 °F
Wind: 9 mph from Northeast

Location: Frankfurt-M-Flughafen Airport

Current Time: Nov 22, 2014 at 6:10:02 PM

Latest Report: Nov 22, 2014 at 5:20 PM


Visibility: 6 mi

Pressure: 30.15 "Hg

Humidity: 87%

Dew point: 41 °F

Location of LangenLocation

Historic Weather in Langen — Graph

°F

Langen temperature yesterday

Maximum temperature yesterday: 48 °F (at 1:20 PM)
Minimum temperature yesterday: 36 °F (at 4:50 AM)
Average temperature yesterday: 42 °F

Past Weeks' High & Low Weather Summary

 TemperatureHumidityPressure
High55 °F (Nov 8, 2:50 PM)100% (Nov 8, 12:50 AM)30.33 "Hg (Nov 8, 12:50 AM)
Low36 °F (Nov 21, 4:50 AM)66% (Nov 21, 1:20 PM)29.50 "Hg (Nov 16, 5:50 AM)
Average47 °F89%29.87 "Hg
* Reported Nov 7 4:20 PM — Nov 22 4:50 PM, Langen, Weather by CustomWeather, © 2014

Note: Actual official high and low records may vary slightly from our data, if they occured in-between our weather recording intervals... More about our weather records

Advertising

Langen weather history for previous 24 hours

 ConditionsComfort  
Time TempWeatherWind HumidityBarometerVisibility
4:50 PM
Nov 22
45 °FClear.8 mph81%30.15 "Hg6 mi
4:20 PM46 °FClear.7 mph82%30.15 "Hg6 mi
3:50 PM46 °FSunny.6 mph82%30.15 "Hg10 mi
3:20 PM46 °FSunny.6 mph82%30.15 "Hg10 mi
2:50 PM46 °FSunny.6 mph76%30.15 "Hg10 mi
2:20 PM46 °FPassing clouds.3 mph76%30.15 "HgN/A
1:50 PM46 °FPartly sunny.5 mph76%30.15 "HgN/A
1:20 PM46 °FPassing clouds.5 mph76%30.15 "HgN/A
12:50 PM45 °FPassing clouds.5 mph81%30.15 "HgN/A
12:20 PM45 °FPartly sunny.5 mph76%30.18 "HgN/A
11:50 AM43 °FScattered clouds.7 mph81%30.18 "HgN/A
11:20 AM43 °FPartly sunny.5 mph81%30.18 "HgN/A
10:50 AM41 °FPartly sunny.5 mph87%30.18 "HgN/A
10:20 AM41 °FPartly sunny.7 mph87%30.18 "HgN/A
9:50 AM41 °FPartly sunny.6 mph87%30.18 "HgN/A
9:20 AM39 °FPartly sunny.6 mph87%30.15 "HgN/A
8:50 AM39 °FPartly sunny.6 mph87%30.18 "HgN/A
8:20 AM39 °FPartly sunny.5 mph87%30.15 "Hg6 mi
7:50 AM39 °FPartly sunny.5 mph87%30.15 "Hg6 mi
7:20 AM39 °FPassing clouds.7 mph87%30.15 "HgN/A
6:50 AM39 °FPassing clouds.6 mph87%30.15 "HgN/A
6:20 AM37 °FPassing clouds.5 mph93%30.15 "HgN/A
5:50 AM36 °FPassing clouds.5 mph100%30.15 "HgN/A
5:20 AM37 °FPassing clouds.5 mph87%30.15 "HgN/A
4:50 AM36 °FPassing clouds.7 mph93%30.15 "HgN/A
4:20 AM37 °FPassing clouds.7 mph93%30.15 "HgN/A
3:50 AM37 °FClear.7 mph93%30.15 "Hg10 mi
3:20 AM37 °FClear.7 mph93%30.15 "Hg10 mi
2:50 AM37 °FClear.8 mph87%30.12 "Hg10 mi
2:20 AM37 °FClear.8 mph93%30.15 "Hg10 mi
1:50 AM39 °FClear.7 mph87%30.15 "Hg10 mi
1:20 AM39 °FClear.6 mph87%30.15 "Hg10 mi
12:50 AM36 °FPassing clouds.3 mph93%30.15 "HgN/A
12:20 AM37 °FClear.2 mph93%30.15 "Hg10 mi
11:50 PM
Nov 21
39 °FClear.8 mph87%30.15 "Hg10 mi
11:20 PM39 °FClear.9 mph87%30.15 "Hg10 mi
10:20 PM41 °FClear.9 mph81%30.15 "Hg10 mi
9:50 PM41 °FClear.7 mph81%30.15 "Hg10 mi
9:20 PM39 °FClear.5 mph87%30.15 "Hg10 mi
8:50 PM39 °FPassing clouds.3 mph87%30.15 "HgN/A
8:20 PM41 °FClear.7 mph81%30.15 "Hg10 mi
7:50 PM41 °FClear.8 mph81%30.15 "Hg10 mi
7:20 PM43 °FClear.8 mph76%30.15 "Hg10 mi
6:50 PM45 °FClear.7 mph76%30.15 "Hg10 mi
6:20 PM45 °FClear.8 mph76%30.15 "Hg10 mi
Weather by CustomWeather, © 2014

See weather overviewHow to use our weather pages